IRNSS-1D                
1 40547U 15018A   19260.50310209 -.00000290  00000-0  00000+0 0  9994
2 40547  29.0393 281.7849 0020608 186.7626 180.4856  1.00276152 16530
PSLV R/B                
1 40548U 15018B   19260.15470610  .00002618  00000-0  34505-3 0  9995
2 40548  19.0050  95.2509 6006594  27.2802 354.4976  4.05177707 65242